Weather in Gritsovo

Russia / Tula Oblast     54°06′46″N   38°09′59″E
temp.,
°C
wind,
m/s
gust,
m/s
humid.,
%
clouds,
%
prec.,
mm/h
press.,
hPa
HPBL,
m
15 june, tue
tue1500:00+17n11865 0.0 101511
03:00+16nne11875 0.0 101511
06:00+17nnw23875 0.0 101575
09:00+21n12744 0.1 1014400
12:00+24n11605 2.0 10131124
15:00+25n226245 3.0 10121290
18:00+23nnw237683 3.0 1010112
21:00+19nnw117878 4.5 101011
16 june, wed
wed1600:00+17nw228793 0.8 101017
03:00+16nw339174 1.8 101041
06:00+17nnw259458 0.0 1011139
09:00+20nnw568329 0.5 1011435
12:00+23nnw66703 0.9 10121072
15:00+23n676933 1.5 10131235
18:00+22n47741 0.0 1014902
21:00+17n37890 0.0 1016120
17 june, thu
thu1700:00+15nne410840 0.0 1018207
03:00+12nne49801 0.0 1020145
06:00+13nne38820 0.0 1022197
09:00+17nne56682 0.0 1023451
12:00+20ne56600 0.0 10241062
15:00+21ne55570 0.0 10241302
18:00+20nne46680 0.0 1024703
21:00+15nne33785 0.0 102626
18 june, fri
fri1800:00+14ene23794 0.0 102624
03:00+12ene227732 0.0 102711
06:00+14ene23802 0.0 102887
09:00+19e23682 0.0 1028455
12:00+21e34580 0.0 10281304
15:00+22ese23563 0.0 10281502
18:00+22ese22675 0.0 10281274
21:00+17sse227823 0.0 102811
19 june, sat
sat1900:00+15ssw2284100 0.0 102911
03:00+14ssw12863 0.0 102911
06:00+16s11824 0.0 103054
09:00+20sse22710 0.0 1029482
12:00+22s23630 0.0 10281232
15:00+24s22590 0.0 10271406
18:00+23ssw22680 0.0 10261110
21:00+18ssw11780 0.0 102611